TimeEST,TemperatureF,Dew PointF,Humidity,Sea Level PressureIn,VisibilityMPH,Wind Direction,Wind SpeedMPH,Gust SpeedMPH,PrecipitationIn,Events,Conditions,WindDirDegrees,DateUTC
12:15 AM,37.4,33.8,87,30.28,10.0,SSW,4.6,-,N/A,,Overcast,210,2013-01-28 05:15:00
12:35 AM,37.4,33.8,87,30.28,10.0,SW,9.2,-,N/A,,Overcast,220,2013-01-28 05:35:00
12:55 AM,37.4,33.8,87,30.28,10.0,SW,11.5,-,N/A,,Overcast,230,2013-01-28 05:55:00
1:15 AM,37.4,33.8,87,30.28,10.0,SW,9.2,-,N/A,,Overcast,220,2013-01-28 06:15:00
1:35 AM,37.4,33.8,87,30.28,10.0,SSW,9.2,-,N/A,,Overcast,210,2013-01-28 06:35:00
1:55 AM,37.4,33.8,87,30.28,10.0,SSW,6.9,-,N/A,,Overcast,200,2013-01-28 06:55:00
2:15 AM,37.4,33.8,87,30.28,10.0,SSW,10.4,-,N/A,,Overcast,210,2013-01-28 07:15:00
2:35 AM,37.4,33.8,87,30.28,10.0,SW,10.4,-,N/A,,Light Drizzle,220,2013-01-28 07:35:00
2:55 AM,37.4,33.8,87,30.28,10.0,SW,9.2,-,N/A,,Overcast,220,2013-01-28 07:55:00
3:15 AM,37.4,33.8,87,30.28,10.0,SW,4.6,-,N/A,,Overcast,220,2013-01-28 08:15:00
3:35 AM,37.4,33.8,87,30.28,10.0,SW,9.2,-,N/A,,Overcast,220,2013-01-28 08:35:00
3:55 AM,37.4,33.8,87,30.28,10.0,SW,8.1,-,N/A,,Overcast,220,2013-01-28 08:55:00
4:15 AM,37.4,33.8,87,30.28,10.0,SW,4.6,-,N/A,,Overcast,230,2013-01-28 09:15:00
4:35 AM,37.4,33.8,87,30.28,10.0,SSW,4.6,-,N/A,,Overcast,200,2013-01-28 09:35:00
4:55 AM,37.4,33.8,87,30.28,10.0,WSW,4.6,-,N/A,,Overcast,240,2013-01-28 09:55:00
5:15 AM,39.2,33.8,81,30.28,10.0,SW,9.2,-,N/A,,Overcast,230,2013-01-28 10:15:00
5:35 AM,39.2,33.8,81,30.28,10.0,SW,10.4,-,N/A,,Mostly Cloudy,230,2013-01-28 10:35:00
5:55 AM,41.0,33.8,76,30.29,10.0,WSW,12.7,-,N/A,,Overcast,240,2013-01-28 10:55:00
6:15 AM,41.0,33.8,76,30.29,10.0,WSW,12.7,-,N/A,,Overcast,240,2013-01-28 11:15:00
6:35 AM,41.0,33.8,76,30.29,10.0,SW,10.4,-,N/A,,Mostly Cloudy,230,2013-01-28 11:35:00
6:55 AM,41.0,33.8,76,30.30,10.0,WSW,11.5,-,N/A,,Clear,250,2013-01-28 11:55:00
7:15 AM,39.2,33.8,81,30.29,10.0,South,6.9,-,N/A,,Clear,190,2013-01-28 12:15:00
7:35 AM,39.2,33.8,81,30.30,10.0,SW,13.8,-,N/A,,Scattered Clouds,220,2013-01-28 12:35:00
7:55 AM,41.0,33.8,76,30.30,10.0,SW,10.4,-,N/A,,Overcast,230,2013-01-28 12:55:00
8:15 AM,39.2,33.8,81,30.29,10.0,SW,13.8,-,N/A,,Scattered Clouds,220,2013-01-28 13:15:00
8:35 AM,41.0,35.6,81,30.29,10.0,SW,15.0,-,N/A,,Clear,220,2013-01-28 13:35:00
8:55 AM,42.8,35.6,76,30.29,10.0,SW,16.1,20.7,N/A,,Clear,220,2013-01-28 13:55:00
9:15 AM,44.6,39.2,81,30.30,10.0,WSW,16.1,-,N/A,,Clear,240,2013-01-28 14:15:00
9:35 AM,44.6,41.0,87,30.29,10.0,SW,15.0,24.2,N/A,,Scattered Clouds,230,2013-01-28 14:35:00
9:55 AM,46.4,41.0,81,30.29,10.0,WSW,19.6,25.3,N/A,,Scattered Clouds,240,2013-01-28 14:55:00
10:15 AM,46.4,41.0,81,30.28,10.0,SW,18.4,26.5,N/A,,Mostly Cloudy,230,2013-01-28 15:15:00
10:35 AM,46.4,42.8,87,30.29,10.0,SW,18.4,26.5,N/A,,Overcast,230,2013-01-28 15:35:00
10:55 AM,46.4,41.0,81,30.29,10.0,WSW,19.6,24.2,N/A,,Overcast,240,2013-01-28 15:55:00
11:15 AM,46.4,41.0,81,30.28,10.0,WSW,17.3,23.0,N/A,,Overcast,240,2013-01-28 16:15:00
11:35 AM,46.4,41.0,81,30.27,10.0,WSW,17.3,23.0,N/A,,Overcast,240,2013-01-28 16:35:00
11:55 AM,46.4,41.0,81,30.27,10.0,WSW,17.3,-,N/A,,Overcast,240,2013-01-28 16:55:00
12:15 PM,46.4,41.0,81,30.26,10.0,WSW,19.6,-,N/A,,Overcast,240,2013-01-28 17:15:00
12:35 PM,46.4,42.8,87,30.25,10.0,SW,16.1,-,N/A,,Overcast,230,2013-01-28 17:35:00
1:15 PM,50.0,44.6,82,30.23,10.0,WSW,19.6,27.6,N/A,,Overcast,240,2013-01-28 18:15:00
1:35 PM,48.2,44.6,87,30.22,10.0,SW,21.9,32.2,N/A,,Overcast,230,2013-01-28 18:35:00
1:55 PM,48.2,44.6,87,30.22,10.0,WSW,17.3,25.3,N/A,,Overcast,250,2013-01-28 18:55:00
2:15 PM,48.2,44.6,87,30.21,10.0,WSW,21.9,26.5,N/A,,Overcast,240,2013-01-28 19:15:00
2:35 PM,46.4,44.6,93,30.22,10.0,SW,19.6,23.0,N/A,,Overcast,230,2013-01-28 19:35:00
2:55 PM,46.4,44.6,93,30.22,10.0,SW,17.3,24.2,N/A,,Overcast,230,2013-01-28 19:55:00
3:15 PM,46.4,44.6,93,30.21,10.0,SW,19.6,28.8,N/A,,Overcast,220,2013-01-28 20:15:00
3:35 PM,46.4,44.6,93,30.21,7.0,SW,18.4,23.0,N/A,,Overcast,230,2013-01-28 20:35:00
3:55 PM,46.4,46.4,100,30.22,5.0,SW,17.3,26.5,N/A,,Overcast,230,2013-01-28 20:55:00
4:15 PM,46.4,46.4,100,30.21,7.0,SW,11.5,-,N/A,,Overcast,230,2013-01-28 21:15:00
4:35 PM,46.4,46.4,100,30.21,10.0,SW,20.7,25.3,N/A,,Overcast,220,2013-01-28 21:35:00
4:55 PM,48.2,46.4,93,30.21,10.0,SW,15.0,-,N/A,,Overcast,230,2013-01-28 21:55:00
5:15 PM,46.4,46.4,100,30.21,7.0,SW,17.3,23.0,N/A,Rain,Light Rain,230,2013-01-28 22:15:00
5:35 PM,46.4,46.4,100,30.21,2.5,SW,16.1,23.0,N/A,Rain,Rain,220,2013-01-28 22:35:00
5:55 PM,48.2,48.2,100,30.21,7.0,SW,15.0,23.0,N/A,,Overcast,230,2013-01-28 22:55:00
6:15 PM,48.2,48.2,100,30.21,4.0,SW,17.3,26.5,N/A,Rain,Light Rain,230,2013-01-28 23:15:00
6:35 PM,48.2,48.2,100,30.22,10.0,SW,16.1,19.6,N/A,Rain,Light Rain,220,2013-01-28 23:35:00
6:55 PM,50.0,48.2,94,30.22,10.0,SW,17.3,24.2,N/A,,Overcast,230,2013-01-28 23:55:00
7:15 PM,48.2,48.2,100,30.23,7.0,SW,15.0,27.6,0.01,Rain,Light Rain,230,2013-01-29 00:15:00
7:35 PM,48.2,48.2,100,30.23,7.0,WSW,15.0,21.9,0.01,,Overcast,240,2013-01-29 00:35:00
7:55 PM,48.2,48.2,100,30.23,10.0,SW,13.8,20.7,0.01,Rain,Light Rain,230,2013-01-29 00:55:00
8:15 PM,48.2,48.2,100,30.23,10.0,SW,12.7,-,N/A,,Overcast,230,2013-01-29 01:15:00
8:35 PM,48.2,48.2,100,30.23,10.0,SW,12.7,-,N/A,Rain,Light Rain,230,2013-01-29 01:35:00
8:55 PM,48.2,48.2,100,30.23,7.0,SW,11.5,17.3,N/A,Rain,Light Rain,230,2013-01-29 01:55:00
9:15 PM,48.2,48.2,100,30.22,5.0,SW,11.5,-,N/A,Rain,Light Rain,220,2013-01-29 02:15:00
9:35 PM,48.2,48.2,100,30.22,5.0,SW,12.7,17.3,0.01,Rain,Light Rain,230,2013-01-29 02:35:00
9:55 PM,48.2,48.2,100,30.22,10.0,SW,13.8,-,0.02,,Overcast,230,2013-01-29 02:55:00
10:15 PM,48.2,48.2,100,30.22,10.0,WSW,12.7,-,N/A,,Overcast,240,2013-01-29 03:15:00
10:35 PM,50.0,50.0,100,30.22,10.0,WSW,11.5,-,N/A,,Overcast,240,2013-01-29 03:35:00
10:55 PM,50.0,50.0,100,30.21,10.0,WSW,12.7,-,N/A,,Overcast,240,2013-01-29 03:55:00
11:15 PM,48.2,48.2,100,30.22,10.0,WSW,15.0,-,N/A,,Overcast,240,2013-01-29 04:15:00
11:35 PM,50.0,50.0,100,30.22,10.0,SW,15.0,20.7,N/A,,Overcast,230,2013-01-29 04:35:00
11:55 PM,50.0,50.0,100,30.22,10.0,WSW,12.7,-,N/A,,Overcast,240,2013-01-29 04:55:00